This demonstration page uses our WeatherBlox Daily Observations layout. Learn more.

Left ArrowRight Arrow

39.51506, -84.39828

Hourly Observations for April 9, 2015

Temp ( °F °C ) Dew Point ( °F °C ) Humidity (%) Winds ( mph kmh ) Pressure ( in mb ) Visibility ( mi km ) Precip ( " mm )
12:15 am 00:15 Clear with Mist and Fog 60 15.7 56 13.6 87 87 N N/A 29.97 1015 3 4.82802 N/A
12:35 am 00:35 Mostly Cloudy with Mist and Fog 60 15.3 56 13.4 89 89 N N/A 30 1016 1 1.60934 N/A
12:55 am 00:55 Mostly Cloudy with Fog 57 13.8 54 12 89 89 N N/A 30 1016 0.5 0.80467 N/A
1:15 am 01:15 Mostly Cloudy with Fog 60 15.3 56 13.6 90 90 N N/A 29.94 1014 0.25 0.402335 N/A
1:35 am 01:35 Mostly Cloudy with Mist and Fog 58 14.6 55 12.8 89 89 N N/A 30 1016 0.75 1.207005 N/A
1:55 am 01:55 Partly Cloudy with Mist and Fog 57 14.1 54 12.3 89 89 N N/A 30 1016 4 6.43736 N/A
2:15 am 02:15 Mostly Cloudy with Mist and Fog 60 15.3 56 13.6 90 90 N N/A 29.94 1014 4 6.43736 N/A
2:35 am 02:35 Mostly Cloudy with Mist and Fog 57 14 54 12.3 90 90 N N/A 29.97 1015 3 4.82802 N/A
2:55 am 02:55 Cloudy with Light Rain 60 15.3 57 13.7 90 90 N N/A 29.94 1014 4 6.43736 N/A
3:15 am 03:15 Cloudy with Light Rain 60 15.3 57 13.7 90 90 N N/A 29.91 1013 4 6.43736 N/A
3:35 am 03:35 Cloudy with Light Rain 60 15.5 57 13.9 90 90 SSW 5 7 29.91 1013 5 8.0467 N/A
3:55 am 03:55 Mostly Cloudy with Mist and Fog 60 15.3 57 13.7 90 90 N N/A 29.91 1013 5 8.0467 N/A
4:15 am 04:15 Partly Cloudy with Mist and Fog 60 15.3 57 13.7 90 90 N N/A 29.88 1012 4 6.43736 N/A
4:35 am 04:35 Mostly Cloudy with Mist and Fog 60 15.3 57 13.7 90 90 N N/A 29.88 1012 0.75 1.207005 N/A
4:55 am 04:55 Mostly Cloudy with Mist and Fog 60 15.3 57 13.7 90 90 N N/A 29.88 1012 1 1.60934 N/A
5:15 am 05:15 Clear with Mist and Fog 60 15.3 57 13.7 90 90 N N/A 29.88 1012 5 8.0467 N/A
5:35 am 05:35 Clear with Mist and Fog 60 15.3 57 13.7 90 90 N N/A 29.88 1012 3 4.82802 N/A
5:55 am 05:55 Clear with Mist and Fog 59 15 56 13.4 90 90 N N/A 29.88 1012 2.5 4.02335 N/A
6:15 am 06:15 Clear with Mist and Fog 59 14.8 56 13.2 90 90 N N/A 29.88 1012 2.5 4.02335 N/A
6:35 am 06:35 Clear with Mist and Fog 60 15.3 57 13.8 91 91 SW 3 6 29.88 1012 3 4.82802 N/A
6:55 am 06:55 Clear 60 15.3 57 13.7 90 90 SSW 5 7 29.88 1012 7 11.26538 N/A
7:15 am 07:15 Sunny 60 15.3 57 13.7 90 90 N N/A 29.88 1012 7 11.26538 N/A
7:35 am 07:35 Sunny with Mist and Fog 60 15.3 57 13.7 90 90 N N/A 29.88 1012 3 4.82802 N/A
7:55 am 07:55 Sunny with Mist and Fog 57 14 55 12.5 91 91 N N/A 29.94 1014 3 4.82802 N/A
8:15 am 08:15 Sunny with Mist and Fog 60 15.3 57 13.7 90 90 N N/A 29.88 1012 3 4.82802 N/A
8:35 am 08:35 Sunny with Mist and Fog 60 15.4 57 13.8 90 90 N N/A 29.91 1013 3 4.82802 N/A
8:55 am 08:55 Sunny with Mist and Fog 61 16.1 58 14.5 90 90 N N/A 29.91 1013 4 6.43736 N/A
9:15 am 09:15 Partly Cloudy 62 16.9 60 15.3 90 90 S 6 9 29.91 1013 7 11.26538 N/A
9:35 am 09:35 Mostly Cloudy with Light Rain 65 18.5 62 16.5 88 88 SSW 7 11 29.91 1013 10 16.0934 N/A
9:55 am 09:55 Partly Cloudy 67 19.5 63 17 86 86 S 9 15 29.91 1013 7 11.26538 N/A
10:15 am 10:15 Mostly Cloudy 69 20.8 64 18 84 84 SSW 9 15 29.91 1013 10 16.0934 N/A
10:35 am 10:35 Mostly Cloudy 69 20.8 64 17.5 82 82 SSW 10 17 29.88 1012 10 16.0934 N/A
10:55 am 10:55 Mostly Cloudy 69 20.8 63 17.2 80 80 SSW 13 20 29.88 1012 10 16.0934 N/A
11:15 am 11:15 Cloudy 71 21.6 64 17.7 79 79 SSW 10 17 29.88 1012 10 16.0934 N/A
11:35 am 11:35 Mostly Cloudy 72 22.3 64 17.9 76 76 SSW 12 19 29.88 1012 10 16.0934 N/A
11:55 am 11:55 Cloudy 72 22.3 65 18.2 78 78 SW 9 15 29.88 1012 10 16.0934 N/A
12:15 pm 12:15 Cloudy 74 23.6 66 18.8 75 75 SSW 9 15 29.88 1012 10 16.0934 N/A
12:35 pm 12:35 Mostly Cloudy 74 23.6 64 17.8 70 70 SW 17 28 29.88 1012 10 16.0934 N/A
12:55 pm 12:55 Cloudy 74 23.6 65 18.1 71 71 SW 14 22 29.88 1012 10 16.0934 N/A
1:15 pm 13:15 Mostly Cloudy 77 25.1 66 18.7 68 68 SSW 17 28 29.85 1011 10 16.0934 N/A
1:35 pm 13:35 Partly Cloudy 77 25.1 65 18.4 66 66 SW 13 20 29.85 1011 10 16.0934 N/A
1:55 pm 13:55 Mostly Cloudy 77 25.1 64 17.8 64 64 SW 20 31 29.85 1011 10 16.0934 N/A
2:15 pm 14:15 Cloudy with Light Rain 74 23.6 62 16.9 66 66 SW 21 33 29.85 1011 10 16.0934 N/A
2:35 pm 14:35 Cloudy with Rain 72 22.1 65 18.4 80 80 SW 16 26 29.85 1011 7 11.26538 N/A
2:55 pm 14:55 Cloudy with Rain 70 21.3 64 17.7 80 80 SW 15 24 29.83 1010 7 11.26538 N/A
3:15 pm 15:15 Partly Cloudy 74 23.6 68 20 80 80 SSW 10 17 29.83 1010 10 16.0934 N/A
3:35 pm 15:35 Sunny 74 23.6 67 19.3 77 77 SSW 15 24 29.83 1010 10 16.0934 N/A
3:55 pm 15:55 Partly Cloudy 74 23.6 66 19 75 75 SSW 13 20 29.83 1010 10 16.0934 N/A
4:15 pm 16:15 Sunny 74 23.6 64 17.6 69 69 SSW 18 30 29.83 1010 10 16.0934 N/A
4:35 pm 16:35 Sunny 74 23.6 63 17.3 68 68 SW 22 35 29.83 1010 10 16.0934 N/A
4:55 pm 16:55 Sunny 76 24.5 64 18 67 67 WSW 14 22 29.8 1009 10 16.0934 N/A
5:15 pm 17:15 Partly Cloudy 77 25.1 64 18 65 65 SSW 14 22 29.8 1009 10 16.0934 N/A
5:35 pm 17:35 Partly Cloudy 78 25.4 64 17.9 63 63 SSW 12 19 29.8 1009 10 16.0934 N/A
5:55 pm 17:55 Mostly Cloudy 77 25.1 65 18.6 67 67 SSW 12 19 29.8 1009 10 16.0934 N/A
6:15 pm 18:15 Mostly Cloudy 74 23.6 64 17.5 69 69 SW 10 17 29.8 1009 10 16.0934 N/A
6:35 pm 18:35 Mostly Cloudy with Heavy Rain 74 23.6 67 19.3 77 77 WSW 30 48 29.85 1011 3 4.82802 N/A
6:55 pm 18:55 Mostly Cloudy with Light Rain 69 20.8 64 18 84 84 SSW 15 24 29.83 1010 10 16.0934 N/A
7:15 pm 19:15 Partly Cloudy 69 20.8 63 17.3 80 80 S 10 17 29.8 1009 10 16.0934 N/A
7:35 pm 19:35 Partly Cloudy 69 20.8 64 17.5 82 82 SSW 8 13 29.8 1009 10 16.0934 N/A
7:55 pm 19:55 Mostly Cloudy with Light Rain 69 20.8 64 17.7 83 83 S 8 13 29.77 1008 10 16.0934 N/A
8:15 pm 20:15 Mostly Cloudy 69 20.8 64 17.7 83 83 SSW 6 9 29.8 1009 10 16.0934 N/A
8:35 pm 20:35 Partly Cloudy 69 20.8 65 18.2 85 85 SSW 6 9 29.8 1009 10 16.0934 N/A
8:55 pm 20:55 Clear 69 20.8 65 18.5 87 87 SW 6 9 29.8 1009 10 16.0934 N/A
9:15 pm 21:15 Partly Cloudy 67 19.5 63 17.2 87 87 SW 6 9 29.8 1009 10 16.0934 N/A
9:35 pm 21:35 Partly Cloudy 67 19.5 63 17.2 87 87 SW 3 6 29.8 1009 10 16.0934 N/A
9:55 pm 21:55 Clear with Mist and Fog 64 17.9 61 15.9 88 88 SW 5 7 29.8 1009 5 8.0467 N/A
10:15 pm 22:15 Clear with Mist and Fog 62 16.9 59 15 89 89 SSW 3 6 29.8 1009 5 8.0467 N/A
10:35 pm 22:35 Clear with Mist and Fog 62 16.7 59 14.9 89 89 SW 5 7 29.77 1008 4 6.43736 N/A
10:55 pm 22:55 Clear 61 16 57 14 88 88 SW 5 7 29.77 1008 7 11.26538 N/A
11:15 pm 23:15 Clear 63 17.2 60 15.4 89 89 SSW 6 9 29.77 1008 10 16.0934 N/A
11:35 pm 23:35 Clear 66 18.8 60 15.7 82 82 SSW 5 7 29.77 1008 10 16.0934 N/A
11:55 pm 23:55 Clear 69 20.8 62 16.5 77 77 SSW 10 17 29.74 1007 10 16.0934 N/A

Powered by AerisWeather